sat.trackr.live / text

‹ back to catalog

UNKNOWN

NORAD 87456

UNKNOWN UNKNOWN UNKNOWN

§ Identity

Operator
Country
Launch date
Launch site
Launch vehicle
Mass (kg)
RCS (m²)

External: N2YO · Heavens-Above

§ Orbital elements

Epoch: 2026-09-17T20:41:34.647648Z

Period
101.64 min
Inclination
65.7651°
Eccentricity
0.0505036
Mean motion
14.16733869 rev/d
Perigee alt
472.1 km
Apogee alt
1,200.8 km
Semi-major
7,214.6 km
B*
8.1928e-4
RAAN
67.2675°
Arg perigee
223.1222°
Mean anomaly
132.9257°
Rev number
65,100

§ Raw data

UNKNOWN1 87456U          26260.86220657  .00005796  00000+0  81928-3 0  99992 87456  65.7651  67.2675 0505036 223.1222 132.9257 14.16733869651007

JSON: /api/v1/satellites/87456 · /tle

For live sub-satellite position, see the globe view (requires WebGL).

§ Visibility from observer

Set your observer location to see the next 7 days of passes ≥ 10°. The values pass through the URL so the page stays shareable.

No JS? Fill the form by hand. The geolocation button needs JavaScript.